Location: Dead Woman Crossing
(43.5369°N, 106.3228°W)
Time: 17:39:45
(UTC+00:00)

QB50P2 - Pass Details

Date: 01 July 2022
Orbit: 590 x 605 km, 97.9° (Epoch: 18 August)

Event Time Altitude Azimuth Distance (km) Brightness Sun altitude
Rises 09:44:29 0° 356° (N) 2,861 ? -14.4°
Reaches altitude 10° 09:47:17 10° 336° (NNW) 1,955 ? -14.1°
Maximum altitude 09:49:59 17° 296° (WNW) 1,557 ? -13.8°
Enters shadow 09:52:08 12° 263° (W) 1,818 ? -13.6°
